ETD391 VCBI-OMAA

Flight info

Callsign ETD391
Flight time N/A
Altitude 36000
Route BASUR1D BASUR P570 DOTAT/N0453F380 P570 EMURU N563 TULBU P558 SODEX N563 NOBTO
Aircraft A320/M-SDE3FGHIRWY/LB1

Departure

Time 2026-04-23 09:29
Airport Bandaranaike International Colombo Airport (VCBI)

Arrival

Time N/A
Airport Zayed International Airport (OMAA)
Time Latitude Longitude Altitude Speed Heading
2026-04-23 09:14 7.17614 79.88567 27 ft 0 kts 217°
2026-04-23 09:22 7.17623 79.88574 27 ft 3 kts 217°
2026-04-23 09:22 7.17637 79.88584 27 ft 2 kts 217°
2026-04-23 09:22 7.17651 79.88595 27 ft 3 kts 236°
2026-04-23 09:22 7.17657 79.88611 27 ft 2 kts 264°
2026-04-23 09:23 7.17657 79.88629 27 ft 3 kts 294°
2026-04-23 09:23 7.17653 79.88637 27 ft 0 kts 308°
2026-04-23 09:23 7.17654 79.88637 27 ft 0 kts 308°
2026-04-23 09:23 7.17666 79.88621 27 ft 6 kts 308°
2026-04-23 09:24 7.17708 79.88568 27 ft 13 kts 309°
2026-04-23 09:24 7.17793 79.88487 27 ft 21 kts 320°
2026-04-23 09:24 7.17897 79.88432 27 ft 12 kts 24°
2026-04-23 09:24 7.17979 79.88494 27 ft 18 kts 38°
2026-04-23 09:25 7.18103 79.88586 27 ft 26 kts 36°
2026-04-23 09:25 7.18263 79.88705 27 ft 30 kts 38°
2026-04-23 09:25 7.18423 79.88831 27 ft 30 kts 38°
2026-04-23 09:25 7.18583 79.88955 28 ft 30 kts 36°
2026-04-23 09:26 7.18749 79.89082 28 ft 31 kts 38°
2026-04-23 09:26 7.18904 79.89200 27 ft 28 kts 37°
2026-04-23 09:26 7.19064 79.89325 27 ft 30 kts 38°
2026-04-23 09:26 7.19207 79.89413 27 ft 10 kts 344°
2026-04-23 09:27 7.19228 79.89383 27 ft 0 kts 306°
2026-04-23 09:27 7.19230 79.89380 27 ft 2 kts 306°
2026-04-23 09:28 7.19247 79.89356 27 ft 7 kts 306°
2026-04-23 09:28 7.19283 79.89297 27 ft 14 kts 283°
2026-04-23 09:28 7.19189 79.89197 28 ft 36 kts 217°
2026-04-23 09:28 7.18808 79.88903 29 ft 99 kts 216°
2026-04-23 09:29 7.18120 79.88376 28 ft 147 kts 217°
2026-04-23 09:29 7.17245 79.87709 373 ft 159 kts 220°
2026-04-23 09:29 7.16398 79.86988 952 ft 159 kts 235°
2026-04-23 09:29 7.16150 79.85940 1516 ft 159 kts 281°
2026-04-23 09:30 7.16420 79.84835 1958 ft 172 kts 282°
2026-04-23 09:30 7.16611 79.84027 2160 ft 186 kts 283°
2026-04-23 09:30 7.16918 79.82679 2384 ft 209 kts 282°
2026-04-23 09:30 7.17252 79.81180 2661 ft 230 kts 282°
2026-04-23 09:31 7.17619 79.79527 2979 ft 254 kts 282°
2026-04-23 09:31 7.18112 79.77761 3536 ft 268 kts 296°
2026-04-23 09:31 7.19167 79.76193 4284 ft 273 kts 308°
2026-04-23 09:31 7.20343 79.74658 4816 ft 280 kts 309°
2026-04-23 09:32 7.21545 79.73101 4970 ft 281 kts 309°
2026-04-23 09:32 7.22738 79.71555 4980 ft 279 kts 309°
2026-04-23 09:32 7.23925 79.70014 4986 ft 279 kts 309°
2026-04-23 09:32 7.24907 79.68329 4991 ft 280 kts 295°
2026-04-23 09:33 7.25708 79.66540 4991 ft 281 kts 295°
2026-04-23 09:33 7.26508 79.64747 4990 ft 281 kts 295°
2026-04-23 09:33 7.27307 79.62953 4991 ft 280 kts 295°
2026-04-23 09:33 7.28106 79.61162 5002 ft 281 kts 296°
2026-04-23 09:34 7.28920 79.59343 5645 ft 285 kts 296°
2026-04-23 09:34 7.29736 79.57519 6495 ft 286 kts 296°
2026-04-23 09:34 7.30560 79.55681 7253 ft 289 kts 296°
2026-04-23 09:34 7.31382 79.53847 7981 ft 293 kts 295°
2026-04-23 09:35 7.32225 79.51969 8710 ft 296 kts 295°
2026-04-23 09:35 7.33080 79.50063 9439 ft 300 kts 295°
2026-04-23 09:35 7.33941 79.48133 10096 ft 305 kts 295°
2026-04-23 09:35 7.34839 79.46123 10316 ft 326 kts 295°
2026-04-23 09:36 7.35803 79.43969 10466 ft 346 kts 295°
2026-04-23 09:36 7.36804 79.41730 10914 ft 354 kts 295°
2026-04-23 09:36 7.37819 79.39455 11480 ft 358 kts 295°
2026-04-23 09:36 7.38844 79.37156 12064 ft 361 kts 295°
2026-04-23 09:37 7.39878 79.34838 12658 ft 364 kts 295°
2026-04-23 09:37 7.40920 79.32506 13226 ft 367 kts 295°
2026-04-23 09:37 7.41969 79.30152 13784 ft 370 kts 295°
2026-04-23 09:37 7.43027 79.27780 14292 ft 372 kts 295°
2026-04-23 09:38 7.44095 79.25394 14801 ft 375 kts 295°
2026-04-23 09:38 7.45172 79.22989 15311 ft 378 kts 295°
2026-04-23 09:38 7.46254 79.20571 15812 ft 380 kts 295°
2026-04-23 09:38 7.47346 79.18133 16309 ft 383 kts 295°
2026-04-23 09:39 7.48445 79.15676 16806 ft 386 kts 295°
2026-04-23 09:39 7.49553 79.13198 17305 ft 389 kts 295°
2026-04-23 09:39 7.50670 79.10704 17800 ft 392 kts 295°
2026-04-23 09:39 7.51779 79.08227 18260 ft 395 kts 295°
2026-04-23 09:40 7.52909 79.05691 18708 ft 397 kts 295°
2026-04-23 09:40 7.54044 79.03143 19163 ft 400 kts 295°
2026-04-23 09:40 7.55185 79.00579 19633 ft 402 kts 295°
2026-04-23 09:40 7.56332 78.98003 20094 ft 404 kts 295°
2026-04-23 09:41 7.57486 78.95409 20571 ft 406 kts 295°
2026-04-23 09:41 7.58646 78.92803 21048 ft 408 kts 294°
2026-04-23 09:41 7.59812 78.90189 21528 ft 410 kts 294°
2026-04-23 09:41 7.60982 78.87562 21989 ft 412 kts 294°
2026-04-23 09:42 7.62160 78.84917 22433 ft 414 kts 294°
2026-04-23 09:42 7.63344 78.82259 22872 ft 416 kts 294°
2026-04-23 09:42 7.64531 78.79592 23304 ft 418 kts 294°
2026-04-23 09:42 7.65724 78.76909 23647 ft 421 kts 294°
2026-04-23 09:43 7.66927 78.74206 23965 ft 424 kts 294°
2026-04-23 09:43 7.68134 78.71491 24274 ft 426 kts 293°
2026-04-23 09:43 7.69348 78.68757 24590 ft 429 kts 293°
2026-04-23 09:43 7.70570 78.66004 24894 ft 431 kts 293°
2026-04-23 09:44 7.71803 78.63233 25203 ft 434 kts 293°
2026-04-23 09:44 7.73043 78.60453 25506 ft 436 kts 293°
2026-04-23 09:44 7.74289 78.57657 25807 ft 439 kts 293°
2026-04-23 09:44 7.75541 78.54844 26098 ft 441 kts 292°
2026-04-23 09:45 7.76795 78.52017 26391 ft 443 kts 292°
2026-04-23 09:45 7.78058 78.49164 26679 ft 445 kts 292°
2026-04-23 09:45 7.79307 78.46344 26958 ft 448 kts 292°
2026-04-23 09:45 7.80598 78.43435 27244 ft 450 kts 292°
2026-04-23 09:46 7.81862 78.40590 27518 ft 452 kts 292°
2026-04-23 09:46 7.83149 78.37690 27797 ft 454 kts 292°
2026-04-23 09:46 7.84442 78.34781 28084 ft 456 kts 292°
2026-04-23 09:46 7.85744 78.31853 28378 ft 458 kts 292°
2026-04-23 09:47 7.87048 78.28913 28661 ft 461 kts 291°
2026-04-23 09:47 7.88361 78.25959 28942 ft 463 kts 291°
2026-04-23 09:47 7.89679 78.22986 29223 ft 465 kts 291°
2026-04-23 09:47 7.90999 78.20000 29492 ft 468 kts 291°
2026-04-23 09:48 7.92327 78.16994 29765 ft 470 kts 291°
2026-04-23 09:48 7.93661 78.13982 30040 ft 471 kts 291°
2026-04-23 09:48 7.95001 78.10974 30420 ft 469 kts 291°
2026-04-23 09:48 7.96339 78.07977 30780 ft 468 kts 291°
2026-04-23 09:49 7.97673 78.04986 31124 ft 468 kts 291°
2026-04-23 09:49 7.99006 78.01992 31470 ft 467 kts 291°
2026-04-23 09:49 8.00335 77.99001 31820 ft 467 kts 290°
2026-04-23 09:49 8.01660 77.96016 32177 ft 466 kts 290°
2026-04-23 09:50 8.02983 77.93032 32536 ft 465 kts 290°
2026-04-23 09:50 8.04303 77.90056 32900 ft 465 kts 290°
2026-04-23 09:50 8.05622 77.87080 33274 ft 464 kts 290°
2026-04-23 09:50 8.06942 77.84106 33638 ft 464 kts 289°
2026-04-23 09:51 8.08259 77.81138 33966 ft 463 kts 289°
2026-04-23 09:51 8.09556 77.78216 34290 ft 462 kts 289°
2026-04-23 09:51 8.10867 77.75267 34636 ft 460 kts 289°
2026-04-23 09:51 8.12171 77.72332 34975 ft 458 kts 289°
2026-04-23 09:52 8.13471 77.69404 35315 ft 456 kts 289°
2026-04-23 09:52 8.14765 77.66487 35645 ft 454 kts 289°
2026-04-23 09:52 8.16050 77.63584 35919 ft 453 kts 289°
2026-04-23 09:53 8.18631 77.57751 35999 ft 458 kts 289°
2026-04-23 09:53 8.21230 77.51872 35999 ft 459 kts 289°
2026-04-23 09:54 8.23825 77.45996 35999 ft 459 kts 289°
2026-04-23 09:54 8.26429 77.40112 36000 ft 459 kts 289°
2026-04-23 09:55 8.29036 77.34220 36002 ft 460 kts 289°
2026-04-23 09:55 8.31624 77.28361 36008 ft 460 kts 289°
2026-04-23 09:56 8.34234 77.22465 36009 ft 460 kts 289°
2026-04-23 09:56 8.36841 77.16563 36006 ft 460 kts 289°
2026-04-23 09:57 8.39445 77.10671 36002 ft 460 kts 289°
2026-04-23 09:57 8.42049 77.04774 36000 ft 460 kts 289°
2026-04-23 09:58 8.44644 76.98871 36000 ft 460 kts 289°
2026-04-23 09:58 8.47292 76.92988 35999 ft 462 kts 294°
2026-04-23 09:59 8.50945 76.87581 36003 ft 467 kts 301°
2026-04-23 09:59 8.54743 76.82256 36001 ft 467 kts 301°
2026-04-23 10:00 8.58509 76.76957 36001 ft 467 kts 301°
2026-04-23 10:00 8.62306 76.71620 36002 ft 467 kts 301°
2026-04-23 10:01 8.66098 76.66280 36000 ft 467 kts 301°
2026-04-23 10:01 8.69888 76.60951 35998 ft 467 kts 301°
2026-04-23 10:02 8.73679 76.55615 36000 ft 467 kts 301°
2026-04-23 10:02 8.77465 76.50283 36000 ft 467 kts 301°
2026-04-23 10:03 8.81254 76.44952 35999 ft 467 kts 301°
2026-04-23 10:03 8.85037 76.39622 36000 ft 466 kts 301°
2026-04-23 10:04 8.88792 76.34329 35996 ft 466 kts 301°
2026-04-23 10:04 8.92572 76.29007 36002 ft 466 kts 301°
2026-04-23 10:05 8.96346 76.23679 36002 ft 466 kts 301°
2026-04-23 10:05 9.00112 76.18356 36000 ft 465 kts 301°
2026-04-23 10:06 9.03881 76.13032 36001 ft 465 kts 301°
2026-04-23 10:06 9.07648 76.07712 36001 ft 465 kts 301°
2026-04-23 10:07 9.11415 76.02392 35999 ft 465 kts 301°
2026-04-23 10:07 9.15179 75.97076 36000 ft 465 kts 301°
2026-04-23 10:08 9.18944 75.91750 36003 ft 465 kts 301°
2026-04-23 10:08 9.22680 75.86458 36004 ft 465 kts 300°
2026-04-23 10:09 9.28335 75.78473 36001 ft 465 kts 301°
2026-04-23 10:09 9.32097 75.73149 36002 ft 465 kts 300°
2026-04-23 10:10 9.35853 75.67819 36001 ft 465 kts 300°
2026-04-23 10:10 9.39616 75.62489 36000 ft 465 kts 300°
2026-04-23 10:11 9.43378 75.57157 36001 ft 465 kts 300°
2026-04-23 10:11 9.47134 75.51822 36002 ft 465 kts 300°
2026-04-23 10:12 9.50891 75.46483 36003 ft 466 kts 300°
2026-04-23 10:12 9.54660 75.41143 36009 ft 466 kts 300°
2026-04-23 10:13 9.58402 75.35835 36014 ft 466 kts 300°
2026-04-23 10:13 9.62160 75.30493 36010 ft 466 kts 300°
2026-04-23 10:14 9.65925 75.25140 36008 ft 466 kts 300°
2026-04-23 10:14 9.69680 75.19792 36010 ft 466 kts 300°
2026-04-23 10:15 9.73436 75.14441 36014 ft 466 kts 300°
2026-04-23 10:15 9.77194 75.09097 36007 ft 465 kts 300°
2026-04-23 10:16 9.80956 75.03753 36012 ft 465 kts 300°
2026-04-23 10:16 9.84703 74.98408 36010 ft 465 kts 300°
2026-04-23 10:17 9.88422 74.93103 36010 ft 464 kts 300°
2026-04-23 10:17 9.92168 74.87765 36011 ft 464 kts 300°
2026-04-23 10:18 9.95908 74.82432 36008 ft 464 kts 300°
2026-04-23 10:18 9.99648 74.77095 36008 ft 464 kts 300°
2026-04-23 10:19 10.03379 74.71764 36007 ft 464 kts 300°
2026-04-23 10:19 10.07120 74.66425 35780 ft 463 kts 300°
2026-04-23 10:20 10.10848 74.61097 35796 ft 463 kts 300°
2026-04-23 10:20 10.14577 74.55763 35800 ft 463 kts 300°
2026-04-23 10:21 10.18302 74.50424 35800 ft 463 kts 300°
2026-04-23 10:21 10.22025 74.45090 35801 ft 463 kts 300°
2026-04-23 10:22 10.25724 74.39790 35805 ft 463 kts 299°
2026-04-23 10:22 10.29457 74.34453 35808 ft 464 kts 299°
2026-04-23 10:23 10.33187 74.29111 35810 ft 464 kts 299°
2026-04-23 10:23 10.36915 74.23763 35816 ft 464 kts 299°
2026-04-23 10:24 10.40641 74.18418 35820 ft 464 kts 299°
2026-04-23 10:24 10.44395 74.13077 35817 ft 464 kts 300°
2026-04-23 10:25 10.48173 74.07751 35822 ft 464 kts 300°
2026-04-23 10:25 10.51943 74.02425 35820 ft 464 kts 300°
2026-04-23 10:26 10.55703 73.97091 35821 ft 464 kts 300°
2026-04-23 10:26 10.59442 73.91793 35822 ft 464 kts 300°
2026-04-23 10:27 10.63202 73.86462 35820 ft 464 kts 300°
2026-04-23 10:27 10.66959 73.81125 35824 ft 464 kts 300°
2026-04-23 10:28 10.70712 73.75797 35823 ft 464 kts 299°
2026-04-23 10:28 10.74462 73.70466 35822 ft 463 kts 299°
2026-04-23 10:29 10.77579 73.66032 35820 ft 463 kts 299°
2026-04-23 10:29 10.81328 73.60709 35824 ft 463 kts 299°
2026-04-23 10:30 10.85075 73.55380 35822 ft 462 kts 299°
2026-04-23 10:30 10.88806 73.50057 35823 ft 462 kts 299°
2026-04-23 10:31 10.92544 73.44733 35824 ft 462 kts 299°
2026-04-23 10:31 10.96282 73.39418 35822 ft 462 kts 299°
2026-04-23 10:32 10.99992 73.34129 35823 ft 462 kts 299°
2026-04-23 10:32 11.03717 73.28809 35821 ft 462 kts 299°
2026-04-23 10:33 11.07444 73.23483 35826 ft 462 kts 299°
2026-04-23 10:33 11.11168 73.18155 35822 ft 462 kts 299°
2026-04-23 10:34 11.14899 73.12831 35826 ft 462 kts 299°
2026-04-23 10:34 11.18634 73.07514 35825 ft 461 kts 298°
2026-04-23 10:35 11.22351 73.02190 35820 ft 461 kts 298°
2026-04-23 10:35 11.26070 72.96863 35828 ft 461 kts 298°
2026-04-23 10:36 11.29791 72.91537 35824 ft 461 kts 298°
2026-04-23 10:36 11.33484 72.86245 35834 ft 461 kts 298°
2026-04-23 10:37 11.37202 72.80921 35829 ft 461 kts 298°
2026-04-23 10:37 11.40919 72.75598 35829 ft 461 kts 298°
2026-04-23 10:38 11.44628 72.70275 35832 ft 460 kts 298°
2026-04-23 10:38 11.48331 72.64950 35831 ft 460 kts 298°
2026-04-23 10:39 11.52037 72.59631 35833 ft 460 kts 298°
2026-04-23 10:39 11.55749 72.54317 35820 ft 460 kts 298°
2026-04-23 10:40 11.59453 72.48999 35831 ft 460 kts 298°
2026-04-23 10:40 11.63147 72.43676 35834 ft 460 kts 298°
2026-04-23 10:41 11.66815 72.38395 35828 ft 459 kts 298°
2026-04-23 10:41 11.70508 72.33076 35822 ft 459 kts 298°
2026-04-23 10:42 11.74195 72.27763 35823 ft 459 kts 298°
2026-04-23 10:42 11.77888 72.22452 35828 ft 459 kts 298°
2026-04-23 10:43 11.81580 72.17144 35828 ft 458 kts 298°
2026-04-23 10:43 11.85259 72.11828 35826 ft 458 kts 297°
2026-04-23 10:44 11.88935 72.06513 35826 ft 458 kts 297°
2026-04-23 10:44 11.92620 72.01196 35828 ft 458 kts 297°
2026-04-23 10:45 11.96345 71.95909 35832 ft 459 kts 298°
2026-04-23 10:45 12.00138 71.90710 35830 ft 460 kts 299°
2026-04-23 10:46 12.03974 71.85481 35830 ft 460 kts 299°
2026-04-23 10:46 12.07785 71.80239 35834 ft 459 kts 298°
2026-04-23 10:47 12.11577 71.74996 35832 ft 459 kts 298°
2026-04-23 10:47 12.15371 71.69746 35835 ft 459 kts 298°
2026-04-23 10:48 12.19169 71.64500 35832 ft 459 kts 298°
2026-04-23 10:48 12.22950 71.59252 35835 ft 459 kts 298°
2026-04-23 10:49 12.26731 71.54013 35810 ft 456 kts 299°
2026-04-23 10:49 12.30492 71.48807 35845 ft 454 kts 299°
2026-04-23 10:50 12.34242 71.43626 35850 ft 452 kts 299°
2026-04-23 10:50 12.37972 71.38472 35844 ft 450 kts 299°